Time,TemperatureF,DewpointF,PressureIn,WindDirection,WindDirectionDegrees,WindSpeedMPH,WindSpeedGustMPH,Humidity,HourlyPrecipIn,Conditions,Clouds,dailyrainin,SolarRadiationWatts/m^2,SoftwareType,DateUTC
2013-02-23 09:12:00,36.0,32.0,-100.00,WSW,243,9.0,21.0,85,-99.99,,,-99.99,0.000000,,2013-02-23 17:12:00,
2013-02-23 09:32:00,36.0,32.0,-100.00,WSW,243,9.0,21.0,85,-99.99,,,-99.99,0.000000,,2013-02-23 17:32:00,
2013-02-23 09:42:00,36.0,32.0,-100.00,WSW,243,9.0,21.0,85,-99.99,,,-99.99,0.000000,,2013-02-23 17:42:00,
2013-02-23 09:52:00,36.0,32.0,-100.00,WSW,243,9.0,21.0,85,-99.99,,,-99.99,0.000000,,2013-02-23 17:52:00,
2013-02-23 10:01:00,36.0,32.0,-100.00,WSW,243,9.0,21.0,85,-99.99,,,-99.99,0.000000,,2013-02-23 18:01:00,
2013-02-23 10:32:00,36.0,33.0,-100.00,WNW,287,5.0,27.0,88,0.08,,,-99.99,0.000000,,2013-02-23 18:32:00,
2013-02-23 10:42:00,36.0,33.0,-100.00,WNW,287,5.0,27.0,88,0.08,,,-99.99,0.000000,,2013-02-23 18:42:00,
2013-02-23 10:52:00,36.0,33.0,-100.00,WNW,287,5.0,27.0,88,0.08,,,-99.99,0.000000,,2013-02-23 18:52:00,
2013-02-23 11:01:00,36.0,33.0,-100.00,WNW,287,5.0,27.0,88,0.08,,,-99.99,0.000000,,2013-02-23 19:01:00,
2013-02-23 11:11:00,36.0,33.0,-100.00,WNW,287,5.0,27.0,88,0.08,,,-99.99,0.000000,,2013-02-23 19:11:00,
2013-02-23 11:32:00,37.0,33.0,-100.00,WNW,286,7.0,16.0,84,0.10,,,-99.99,0.000000,,2013-02-23 19:32:00,
2013-02-23 11:42:00,37.0,33.0,-100.00,WNW,286,7.0,16.0,84,0.10,,,-99.99,0.000000,,2013-02-23 19:42:00,
2013-02-23 11:52:00,37.0,33.0,-100.00,WNW,286,7.0,16.0,84,0.10,,,-99.99,0.000000,,2013-02-23 19:52:00,
2013-02-23 12:01:00,37.0,33.0,-100.00,WNW,286,7.0,16.0,84,0.10,,,-99.99,0.000000,,2013-02-23 20:01:00,
2013-02-23 12:11:00,37.0,33.0,-100.00,WNW,286,7.0,16.0,84,0.10,,,-99.99,0.000000,,2013-02-23 20:11:00,
2013-02-23 12:32:00,39.0,35.0,-100.00,WSW,244,9.0,19.0,84,0.04,,,-99.99,0.000000,,2013-02-23 20:32:00,
2013-02-23 12:42:00,39.0,35.0,-100.00,WSW,244,9.0,19.0,84,0.04,,,-99.99,0.000000,,2013-02-23 20:42:00,
2013-02-23 12:52:00,39.0,35.0,-100.00,WSW,244,9.0,19.0,84,0.04,,,-99.99,0.000000,,2013-02-23 20:52:00,
2013-02-23 13:01:00,39.0,35.0,-100.00,WSW,244,9.0,19.0,84,0.04,,,-99.99,0.000000,,2013-02-23 21:01:00,
2013-02-23 13:11:00,39.0,35.0,-100.00,WSW,244,9.0,19.0,84,0.04,,,-99.99,0.000000,,2013-02-23 21:11:00,
2013-02-23 13:42:00,39.0,35.0,-100.00,SW,221,8.0,20.0,84,0.00,,,-99.99,0.000000,,2013-02-23 21:42:00,
2013-02-23 13:52:00,39.0,35.0,-100.00,SW,221,8.0,20.0,84,0.00,,,-99.99,0.000000,,2013-02-23 21:52:00,
2013-02-23 14:01:00,39.0,35.0,-100.00,SW,221,8.0,20.0,84,0.00,,,-99.99,0.000000,,2013-02-23 22:01:00,
2013-02-23 14:11:00,39.0,35.0,-100.00,SW,221,8.0,20.0,84,0.00,,,-99.99,0.000000,,2013-02-23 22:11:00,
2013-02-23 14:42:00,37.0,32.0,-100.00,WNW,290,7.0,19.0,81,0.01,,,-99.99,0.000000,,2013-02-23 22:42:00,
2013-02-23 14:52:00,37.0,32.0,-100.00,WNW,290,7.0,19.0,81,0.01,,,-99.99,0.000000,,2013-02-23 22:52:00,
2013-02-23 15:01:00,37.0,32.0,-100.00,WNW,290,7.0,19.0,81,0.01,,,-99.99,0.000000,,2013-02-23 23:01:00,
2013-02-23 15:11:00,37.0,32.0,-100.00,WNW,290,7.0,19.0,81,0.01,,,-99.99,0.000000,,2013-02-23 23:11:00,
2013-02-23 15:32:00,41.0,33.0,-100.00,West,268,7.0,18.0,73,0.00,,,-99.99,0.000000,,2013-02-23 23:32:00,
2013-02-23 15:42:00,41.0,33.0,-100.00,West,268,7.0,18.0,73,0.00,,,-99.99,0.000000,,2013-02-23 23:42:00,
2013-02-23 15:52:00,41.0,33.0,-100.00,West,268,7.0,18.0,73,0.00,,,-99.99,0.000000,,2013-02-23 23:52:00,
2013-02-23 16:01:00,41.0,33.0,-100.00,West,268,7.0,18.0,73,0.00,,,-99.99,0.000000,,2013-02-24 00:01:00,
2013-02-23 16:11:00,41.0,33.0,-100.00,West,268,7.0,18.0,73,0.00,,,-99.99,0.000000,,2013-02-24 00:11:00,
2013-02-23 16:32:00,38.0,28.0,-100.00,WNW,286,8.0,23.0,68,0.00,,,-99.99,0.000000,,2013-02-24 00:32:00,
2013-02-23 16:42:00,38.0,28.0,-100.00,WNW,286,8.0,23.0,68,0.00,,,-99.99,0.000000,,2013-02-24 00:42:00,
2013-02-23 16:52:00,38.0,28.0,-100.00,WNW,286,8.0,23.0,68,0.00,,,-99.99,0.000000,,2013-02-24 00:52:00,
2013-02-23 17:01:00,38.0,28.0,-100.00,WNW,286,8.0,23.0,68,0.00,,,-99.99,0.000000,,2013-02-24 01:01:00,
2013-02-23 17:11:00,38.0,28.0,-100.00,WNW,286,8.0,23.0,68,0.00,,,-99.99,0.000000,,2013-02-24 01:11:00,
2013-02-23 17:32:00,36.0,29.0,-100.00,SW,233,6.0,17.0,74,0.00,,,-99.99,0.000000,,2013-02-24 01:32:00,
2013-02-23 17:42:00,36.0,29.0,-100.00,SW,233,6.0,17.0,74,0.00,,,-99.99,0.000000,,2013-02-24 01:42:00,
2013-02-23 17:52:00,36.0,29.0,-100.00,SW,233,6.0,17.0,74,0.00,,,-99.99,0.000000,,2013-02-24 01:52:00,
2013-02-23 18:01:00,36.0,29.0,-100.00,SW,233,6.0,17.0,74,0.00,,,-99.99,0.000000,,2013-02-24 02:01:00,
2013-02-23 18:11:00,36.0,29.0,-100.00,SW,233,6.0,17.0,74,0.00,,,-99.99,0.000000,,2013-02-24 02:11:00,
2013-02-23 18:42:00,36.0,28.0,-100.00,West,273,6.0,17.0,71,0.00,,,-99.99,0.000000,,2013-02-24 02:42:00,
2013-02-23 18:52:00,36.0,28.0,-100.00,West,273,6.0,17.0,71,0.00,,,-99.99,0.000000,,2013-02-24 02:52:00,
2013-02-23 19:01:00,36.0,28.0,-100.00,West,273,6.0,17.0,71,0.00,,,-99.99,0.000000,,2013-02-24 03:01:00,
2013-02-23 19:11:00,36.0,28.0,-100.00,West,273,6.0,17.0,71,0.00,,,-99.99,0.000000,,2013-02-24 03:11:00,